Activity Log for Jan, 26 2019

Back to Activity Log Search


Incident Time Nature Address
19F009303 00:05:32 43 DISTURBANCE 19XX ST JOSEPH BLVD
19F009304 00:06:28 66 MENTALLY ILL 16XX REED RD
19F009305 00:16:19 51JO 104XX MAYSVILLE RD
19F009306 00:17:51 25 PD ACCIDENT 310XX I 69 NB
19F009307 00:18:04 40A AUDIBLE 17XX APPLE GLEN BLVD
19F009308 00:22:01 46,96 53XX CRESTHILL DR
19F009309 00:23:29 25,86 313XX I 69 SB
19F009310 00:36:44 113 SHOTS FIRED 37XX TRACE WAY
19F009311 00:38:39 48 SUSPICIOUS 103XX MAYSVILLE RD
19F009312 00:38:41 911 HANG UP 4XX W WILDWOOD AVE
19F009332 00:40:51 14 WARRANT 28XX NEW HAVEN AVE
19F009313 00:45:11 25 PD ACCIDENT 314XX I 69 NB
19F009314 00:56:50 46 DOMESTIC 8XX HIGH ST
19F009315 00:58:18 103 UNWANTED 61XX BUNT DR
19F009316 01:00:41 EMS 56XX ST JOE RD
19F009317 01:04:32 102,TX THREATS 10XX N COLISEUM BLVD
19F009318 01:09:33 40A AUDIBLE 48XX COLDWATER RD
19F009319 01:12:18 48,36 22XX CIMARRON PASS
19F009320 01:17:31 36 OCCUPIED VEH 305XX I 69 SB
19F009321 01:18:49 1 MEET XX E MAIN ST
19F009323 01:19:12 51JO 50XX DECATUR RD
19F009325 01:19:38 40A AUDIBLE 26XX JEFFERDS AVE
19F009322 01:19:43 25 PD ACCIDENT COVINGTON RD & EGGEMAN RD
19F009324 01:23:16 25HS HIT SKIP ARROWWOOD DR & E STATE BLVD
19F009326 01:27:21 46,62 60XX ANDRO RUN
19F009327 01:31:10 25 PD ACCIDENT 25XX N CLINTON ST
19F009328 01:32:53 43 DISTURBANCE 19XX N CLINTON ST
19F009329 01:33:45 103 UNWANTED 17XX APPLE GLEN BLVD
19F009330 01:40:59 28 DUI 61XX STELLHORN RD
19F009331 01:41:06 43 DISTURBANCE 28XX REED ST
19F009333 01:44:37 46 DOMESTIC 41XX S LAFAYETTE ST
19F009334 01:47:13 25HS HIT SKIP W WAYNE ST & JACKSON ST
19F009335 01:52:03 46 DOMESTIC 8XX HIGH ST
19F009337 02:18:39 25HS HIT SKIP 17XX ROSEMONT DR
19F009336 02:18:53 46,96 8XX HIGH ST
19F009338 02:21:13 43 DISTURBANCE 26XX SPRING ST
19F009339 02:33:48 48 SUSPICIOUS 62XX W JEFFERSON BLVD
19F009342 02:34:10 96 BATTERY 42XX COLDWATER RD
19F009340 02:35:11 43 DISTURBANCE 30XX OAKWOOD DR
19F009341 02:36:53 48,36 28XX E STATE BLVD
19F009343 02:43:49 63 CONTACT W SUPERIOR ST & EWING ST
19F009344 02:45:17 46 DOMESTIC 23XX GAY ST
19F009347 02:54:56 39 STOLEN VEHIC 83XX BRIDGEWAY DR
19F009345 02:58:18 103 UNWANTED 3XX E TILLMAN RD
19F009346 02:58:56 46,96 57XX MEADOWS DR UNIT E
19F009348 03:22:25 20 PROBLEM UNK 6XX W RUDISILL BLVD
19F009349 03:32:34 48 SUSPICIOUS 7XX ARCHER AVE
19F009350 03:33:45 48 SUSPICIOUS WILT ST & JACKSON ST
19F009352 03:34:19 43 DISTURBANCE 37XX W JEFFERSON BLVD
19F009351 03:34:31 35 PARKED VEHIC 314XX I 69 NB
19F009354 03:36:14 48 SUSPICIOUS 6XX W RUDISILL BLVD
19F009353 03:36:44 911 HANG UP 38XX S CALHOUN ST
19F009357 03:41:54 103 UNWANTED 28XX NORTHGATE BLVD
19F009355 03:42:42 43,62 7XX TENNESSEE AVE
19F009356 03:46:15 113 SHOTS FIRED 40XX WAYNE TRACE
19F009358 03:49:37 43 DISTURBANCE 44XX REDSTONE CT
19F009359 03:59:45 40A AUDIBLE 54XX MEIJER DR
19F009360 04:02:38 15 ASSIST 5XX VILLA PARK CT
19F009361 04:07:43 40A AUDIBLE 5XX LOWER HUNTINGTON RD
19F009362 04:10:50 41,36 56XX ST JOE RD
19F009363 04:12:43 30 TRAFFIC STOP E LEWIS ST & S HANNA ST
19F009364 04:14:37 26 PI ACCIDENT E WASHINGTON CENTER RD & COLDWATER
19F009365 04:33:13 911 HANG UP 21XX SHERMAN BLVD
19F009366 04:35:33 46,96 25XX SOUTHWAYNE AVE
19F009367 04:35:49 40A AUDIBLE 73XX MAYSVILLE RD
19F009368 04:50:47 63 CONTACT 49XX LIMA RD
19F009369 04:53:19 46 DOMESTIC 36XX SMITH ST
19F009370 05:00:54 46 DOMESTIC 74XX COLD SPRINGS BLVD
19F009371 05:02:39 129 75XX WYNNEWOOD LN
19F009372 05:02:45 129 55XX CENTERHURST TERR
19F009373 05:10:32 48,36 65XX COVINGTON RD
19F009375 05:24:41 39 STOLEN VEHIC 12XX BOONE ST
19F009374 05:26:10 48,35 35XX SCHELE AVE
19F009376 05:26:47 44LM 24XX ABBEY DR APT 5
19F009377 05:27:26 25HS HIT SKIP 25XX E WAYNE TRACE
19F009378 05:54:22 44LM 24XX ABBEY DR APT 5
19F009380 05:54:46 46 DOMESTIC 29XX KNODE CT
19F009379 05:59:04 33,34 E STATE BLVD & N COLISEUM BLVD
19F009381 06:00:54 33,34 305XX I 69 NB
19F009382 06:14:22 40A AUDIBLE 35XX INDEPENDENCE DR
19F009383 06:16:29 30 TRAFFIC STOP CLAYTON AVE & SHERMAN BLVD
19F009384 06:19:32 30 TRAFFIC STOP E COLISEUM BLVD & TRIER RD
19F009386 06:36:16 40 ALARM 3XX W COOK RD
19F009385 06:36:17 1 MEET ST JOE CENTER RD & REED RD
19F009387 06:53:11 40A AUDIBLE 73XX HICKORY CREEK DR
19F009388 06:54:35 40A AUDIBLE 49XX ROTHMAN RD
19F009389 07:04:50 26 PI ACCIDENT S LAFAYETTE ST & E PETTIT AVE
19F009390 07:08:49 33,34 COVINGTON RD & GETZ RD
19F009391 07:17:24 33,34 LIMA RD & W WASHINGTON CENTER RD
19F009392 07:25:17 40A AUDIBLE 33XX ROSEBAY CT
19F009394 07:26:42 44LM 21XX EDEN ST
19F009393 07:28:16 EMS 12XX GREENE ST
19F009395 07:37:16 129 22XX REED ST
19F009396 07:39:45 25 PD ACCIDENT 30XX I 469 NB
19F009397 08:01:40 40A AUDIBLE 35XX LAKE AVE
19F009398 08:38:54 40A AUDIBLE 69XX BLUE MIST RD
19F009399 08:39:33 50,ATTEMPTED 22XX OLIVER ST
19F009400 08:42:35 30 TRAFFIC STOP RIEDMILLER AVE & SWINNEY AVE
19F009403 08:44:25 17 MOTOR CHECK 42XX BLUFFTON RD
19F009402 08:51:34 25 PD ACCIDENT N CLINTON ST & E STATE BLVD
19F009401 08:51:43 30 TRAFFIC STOP S HILLEGAS RD & ILLINOIS RD
19F009404 09:00:09 25HS HIT SKIP VAN BUREN ST & W MAIN ST
19F009405 09:02:20 25 PD ACCIDENT 31XX MARIAS DR
19F009406 09:08:50 34 TRAFF HAZARD E DEWALD ST & S CLINTON ST
19F009417 09:10:15 39 STOLEN VEHIC 20XX MONTFORD DR
19F009407 09:11:56 46 DOMESTIC 71XX DECATUR RD
19F009409 09:16:26 46 DOMESTIC XX E MAIN ST
19F009408 09:17:42 33,34 ENGLE RD & MUSCODAY PASS
19F009410 09:26:35 30 TRAFFIC STOP E DUPONT RD & AUBURN RD
19F009411 09:27:25 66 MENTALLY ILL 18XX GRISWOLD DR
19F009412 09:32:15 48 SUSPICIOUS 63XX LIMA RD
19F009413 09:35:32 17 MOTOR CHECK 4XX SOUTHFAIR CT
19F009416 09:39:54 66 MENTALLY ILL 19XX CHEROKEE RD
19F009414 09:40:20 30 TRAFFIC STOP E COLISEUM BLVD & COLDWATER RD
19F009415 09:42:23 25 PD ACCIDENT 64XX ILLINOIS RD
19F009418 09:55:56 25 PD ACCIDENT ILLINOIS RD & CHESTNUT HILLS PKWY
19F009419 09:56:33 101 OPEN DOOR 8XX E RUDISILL BLVD
19F009420 10:00:51 129 9XX W RUDISILL BLVD
19F009421 10:01:47 40A AUDIBLE 27XX LEROY AVE
19F009422 10:04:21 47 REMOVE ITEMS 8XX WOODLAND XING
19F009423 10:10:25 25 PD ACCIDENT TRANSPORTATION DR & HUGUENARD RD
19F009424 10:15:50 25 PD ACCIDENT S CALHOUN ST & PURSLEY DR
19F009425 10:17:57 47 REMOVE ITEMS 50XX YORKSHIRE DR
19F009426 10:31:23 40A AUDIBLE 19XX WOODHAVEN DR
19F009427 10:55:21 63 CONTACT 74XX S ANTHONY BLVD
19F009429 10:55:49 911 HANG UP 11XX W STATE BLVD
19F009428 10:56:17 25,86 LIMA RD & W LUDWIG RD
19F009431 11:03:42 48 SUSPICIOUS 28XX SMITH RD
19F009430 11:08:51 25 PD ACCIDENT OSAGE ST & RICHARDSON ST
19F009432 11:17:07 30 TRAFFIC STOP SPATZ AVE & E PETTIT AVE
19F009434 11:20:50 97A LOST ITEMS 1XX W COOK RD
19F009433 11:21:18 51 THEFT 105XX SUN HOLLOW PL
19F009438 11:25:33 15 ASSIST 33XX W COLISEUM BLVD
19F009437 11:25:55 103 UNWANTED 6XX W WAYNE ST
19F009435 11:26:38 39R STOLEN RECO SPATZ AVE & E PETTIT AVE
19F009436 11:26:53 48,36 11XX W STATE BLVD
19F009439 11:30:04 39JO BROADWAY & W WASHINGTON BLVD
19F009440 11:31:32 1 MEET 75XX SOUTHTOWN XING
19F009443 11:34:52 22N CHILD NEGLE 60XX STELLHORN RD
19F009441 11:35:35 40A AUDIBLE 9XX S CALHOUN ST
19F009442 11:37:09 26HS PI HITSKIP 59XX W JEFFERSON BLVD
19F009462 11:43:02 14 WARRANT 6XX LOCUST ST
19F009444 11:43:39 25HS HIT SKIP 56XX WILKIE DR
19F009445 11:50:18 39R STOLEN RECO 56XX WILKIE DR
19F009447 11:56:17 43 DISTURBANCE 39XX E STATE BLVD
19F009446 11:58:46 48 SUSPICIOUS W COLISEUM BLVD & GOSHEN RD
19F009448 12:03:51 103 UNWANTED 29XX GOSHEN RD
19F009449 12:07:23 25 PD ACCIDENT 34XX ENGLE RD
19F009450 12:12:54 30 TRAFFIC STOP LILLIE ST & E RUDISILL BLVD
19F009451 12:16:37 51 THEFT 35XX S HANNA ST
19F009452 12:20:07 15,85 ASST AT O 32XX ST JOE CENTER RD
19F009453 12:31:14 40A AUDIBLE 43XX MERCHANT RD
19F009454 12:40:59 48 SUSPICIOUS W WASHINGTON CENTER RD & GOSHEN RD
19F009455 12:43:16 30 TRAFFIC STOP 93XX W JEFFERSON BLVD
19F009456 12:47:14 129 FAIRFIELD AVE & W BERRY ST
19F009466 12:52:52 99 NARCOTICS GOSHEN RD & W COLISEUM BLVD
19F009459 12:54:46 63 CONTACT 10XX PAPE AVE
19F009457 12:55:34 25 PD ACCIDENT CORVALIS AVE & BELLE VISTA BLVD
19F009461 12:56:10 51 THEFT 21XX W COLISEUM BLVD
19F009460 12:56:57 16,97 6XX THIRD ST
19F009458 12:57:22 129 35XX GEDDES CT
19F009463 13:03:28 62 PARTY ARMED 32XX S HANNA ST
19F009467 13:03:43 16,97 35XX W COLISEUM BLVD
19F009465 13:04:04 63 CONTACT 10XX COLERICK ST
19F009464 13:04:58 30 TRAFFIC STOP LIMA RD & W COOK RD
19F009468 13:11:56 11C CAGE CAR 101XX LIMA RD
19F009469 13:17:39 25,86 44XX S COLONIAL AVE
19F009470 13:24:06 25HS HIT SKIP E RUDISILL BLVD & OLIVER ST
19F009473 13:34:07 96JO 7XX E COLISEUM BLVD
19F009471 13:36:29 25 PD ACCIDENT 21XX TRADERS XING
19F009472 13:46:11 46 DOMESTIC 21XX EBY AVE
19F009474 13:51:17 40A AUDIBLE 43XX ARDMORE AVE
19F009475 13:54:47 17 MOTOR CHECK 9XX FERGUSON AVE
19F009478 13:56:14 47 REMOVE ITEMS 16XX THIRD ST
19F009476 13:59:20 66 MENTALLY ILL 43XX COLDWATER RD
19F009479 13:59:48 46,96 96XX SPRINGVALE DR
19F009477 14:00:32 41 MAN DOWN 5XX W JEFFERSON BLVD
19F009480 14:07:14 46,96 30XX NORDHOLME AVE
19F009482 14:11:52 40H HOLDUP ALRM 1XX W BERRY ST
19F009481 14:12:03 30 TRAFFIC STOP S LAFAYETTE ST & GLENCOE AVE
19F009483 14:15:08 46 DOMESTIC 35XX CHEVIOT DR
19F009484 14:22:24 43 DISTURBANCE 31XX S CALHOUN ST
19F009485 14:23:33 48 SUSPICIOUS BOWSER AVE & E CREIGHTON AVE
19F009486 14:28:22 48 SUSPICIOUS 26XX EVANS ST
19F009487 14:36:26 51JO 1XX E RUDISILL BLVD
19F009488 14:39:35 23,35 VAND VEH 58XX MASON DR
19F009491 14:42:33 EMS 11XX W STATE BLVD
19F009489 14:45:59 11C CAGE CAR 53XX COLDWATER RD
19F009490 14:46:42 14S SERVING WAR 35XX W COLISEUM BLVD
19F009492 14:48:04 51 THEFT 28XX E TILLMAN RD
19F009493 14:49:02 46 DOMESTIC 55XX NORTHRIDGE RD
19F009515 14:49:49 1 MEET 108XX ST JOE RD
19F009494 15:04:54 129 45XX WINDING WAY DR
19F009495 15:10:53 103 UNWANTED 6XX E LEWIS ST
19F009496 15:14:07 30 TRAFFIC STOP 75XX SOUTHTOWN XING
19F009497 15:15:35 48 SUSPICIOUS 53XX COLDWATER RD
19F009498 15:16:25 30 TRAFFIC STOP 20XX W STATE BLVD
19F009499 15:16:26 30 TRAFFIC STOP OXFORD ST & HOLTON AVE
19F009500 15:18:29 129 42XX OAKHURST DR
19F009502 15:20:32 22RN RUNAWAY 36XX ROBINWOOD DR
19F009501 15:23:24 48 SUSPICIOUS 2XX E PETTIT AVE
19F009503 15:28:31 30 TRAFFIC STOP W STATE BLVD & TYLER AVE
19F009504 15:31:23 113 SHOTS FIRED 45XX PORTER DR
19F009505 15:31:36 46 DOMESTIC XX E MAIN ST
19F009509 15:31:55 16,97 41XX W JEFFERSON BLVD
19F009506 15:34:55 108 FOLLOWUP 46XX JASON DR
19F009507 15:35:32 30 TRAFFIC STOP E PAULDING RD & S CALHOUN ST
19F009508 15:36:42 33 DISABLED VEH E COLISEUM BLVD & CRESCENT AVE
19F009510 15:39:21 46 DOMESTIC 34XX CHEVIOT DR
19F009511 15:41:37 63 CONTACT TENNESSEE AVE & CRESCENT AVE
19F009512 15:46:28 97A LOST ITEMS 1XX W COOK RD
19F009513 15:50:06 37 PARKING VIOL 41XX W JEFFERSON BLVD
19F009514 15:50:21 37 PARKING VIOL 41XX W JEFFERSON BLVD
19F009517 15:55:16 44LM 25XX ST MARYS AVE
19F009516 15:57:51 30 TRAFFIC STOP 19XX W STATE BLVD
19F009518 16:06:22 25HS HIT SKIP AUBURN RD & E WALLEN RD
19F009519 16:10:22 44LM 23XX ST MARYS AVE
19F009520 16:16:23 30 TRAFFIC STOP FAIRFIELD AVE & W PETTIT AVE
19F009521 16:18:11 25 PD ACCIDENT 4XX W WASHINGTON BLVD
19F009525 16:23:53 25HS HIT SKIP 31XX ARDMORE AVE
19F009522 16:24:39 46,96 WEBSTER ST & W PETTIT AVE
19F009523 16:26:53 51JO 75XX SOUTHTOWN XING
19F009524 16:31:19 83 INFO REPORT 41XX W JEFFERSON BLVD
19F009526 16:36:28 25 PD ACCIDENT 305XX I 69 SB
19F009527 16:39:44 40A AUDIBLE 3XX W BAKER ST
19F009528 16:42:07 30 TRAFFIC STOP S CALHOUN ST & W JEFFERSON BLVD
19F009530 16:44:06 46 DOMESTIC 12XX SHERMAN BLVD
19F009529 16:45:07 96JO 49XX COVENTRY PKWY
19F009531 17:05:51 26PP PINNED ILLINOIS RD & S HILLEGAS RD
19F009532 17:11:12 63 CONTACT 13XX FAYETTE DR
19F009533 17:14:40 22I JUV INVEST 14XX FLETCHER AVE
19F009534 17:19:29 30 TRAFFIC STOP LIMA RD & W LUDWIG RD
19F009535 17:23:12 11C CAGE CAR 53XX COLDWATER RD
19F009536 17:27:47 66V MENTAL VIOL 40XX THREE OAKS DR
19F009538 17:30:23 25 PD ACCIDENT TIMBERLAKE TRL & ILLINOIS RD
19F009537 17:30:58 30 TRAFFIC STOP W COOK RD & LIMA RD
19F009540 17:32:20 63 CONTACT PAUL ST & ONTARIO ST
19F009539 17:36:21 30 TRAFFIC STOP E RUDISILL BLVD & AVONDALE DR
19F009541 17:42:56 55 FIGHT DAYTON AVE & RAMSEY AVE
19F009542 17:46:07 66 MENTALLY ILL 10XX SHORE DR
19F009543 17:50:38 30 TRAFFIC STOP W COOK RD & LIMA RD
19F009544 17:51:21 43 DISTURBANCE 3XX W SUPERIOR ST
19F009545 17:55:29 41 MAN DOWN 75XX SOUTHTOWN XING
19F009546 18:00:08 50,ATTEMPTED 11XX E BERRY ST
19F009547 18:07:01 30 TRAFFIC STOP E STATE BLVD & N COLISEUM BLVD
19F009548 18:07:28 30 TRAFFIC STOP ILLINOIS RD & MAGNAVOX WAY
19F009549 18:08:25 48 SUSPICIOUS 13XX E BERRY ST
19F009550 18:09:51 25 PD ACCIDENT ILLINOIS RD & STAG DR
19F009551 18:14:42 30 TRAFFIC STOP N COLISEUM BLVD & COLUMBIA AVE
19F009553 18:17:58 911 HANG UP 1XX W BAKER ST
19F009552 18:18:31 30 TRAFFIC STOP LIMA RD & WAYSIDE DR
19F009554 18:25:45 40A AUDIBLE 9XX AVENUE OF AUTOS
19F009555 18:27:16 46,96 26XX MCKINNIE AVE
19F009556 18:31:15 50JO 34XX CHEVIOT DR
19F009557 18:31:31 53 ARMED ROB 35XX BROOKLYN AVE
19F009558 18:34:14 51JO 63XX E STATE BLVD
19F009559 18:38:47 39JO E EL DORADO TRL & FRANCHESCA WAY
19F009560 18:42:39 14S SERVING WAR 4XX ELIZABETH ST
19F009561 18:46:29 30 TRAFFIC STOP 35XX BROOKLYN AVE
19F009564 18:53:57 46 DOMESTIC 24XX THOMPSON AVE
19F009563 18:55:58 103 UNWANTED 57XX BLUFFTON RD
19F009562 18:59:28 48,36 40XX LILLIE ST
19F009565 19:05:28 108 FOLLOWUP 40XX WEISSER PARK AVE
19F009566 19:20:27 108 FOLLOWUP 11XX FULTON ST
19F009567 19:20:35 25 PD ACCIDENT N CLINTON ST & E WASHINGTON CENTER
19F009568 19:22:26 25,86 53XX COLDWATER RD
19F009569 19:23:52 30 TRAFFIC STOP FAIRFIELD AVE & KINNAIRD AVE
19F009570 19:26:07 40A AUDIBLE 46XX STRATHDON DR
19F009571 19:27:10 25 PD ACCIDENT 48XX N CLINTON ST
19F009573 19:33:20 30 TRAFFIC STOP 48XX S MONROE ST
19F009574 19:35:27 26 PI ACCIDENT BLUFFTON RD & BROADWAY
19F009576 19:38:57 40 ALARM 33XX N CLINTON ST
19F009575 19:39:05 30 TRAFFIC STOP S ANTHONY BLVD & CAPITOL AVE
19F009578 19:41:17 44LM 55XX LOIS LN
19F009577 19:41:44 25 PD ACCIDENT S LAFAYETTE ST & E PETTIT AVE
19F009579 19:45:10 46,96 39XX N CLINTON ST LOT 46
19F009581 19:47:12 46 DOMESTIC 8XX APPLEWOOD RD
19F009582 19:47:17 40A AUDIBLE 22XX W LUDWIG RD
19F009580 19:47:24 37 PARKING VIOL 42XX W JEFFERSON BLVD
19F009584 19:50:44 43 DISTURBANCE 3XX BRANDRIFF ST
19F009583 19:51:08 25 PD ACCIDENT LAKE AVE & PINEHURST DR
19F009585 19:52:26 25 PD ACCIDENT ABOITE CENTER RD & W JEFFERSON BLV
19F009586 19:55:42 25 PD ACCIDENT 304XX I 69 SB
19F009589 19:57:47 911 HANG UP 8XX CANDLEWOOD WAY
19F009587 19:58:58 25 PD ACCIDENT MAPLECREST RD & STELLHORN RD
19F009588 19:59:48 50IP BURG I/P 2XX E EL DORADO TRL
19F009593 20:00:18 25HS HIT SKIP ENGLE RD & SMITH RD
19F009590 20:00:31 35 PARKED VEHIC 45XX S MONROE ST
19F009591 20:03:26 25 PD ACCIDENT KENWOOD AVE & HOBSON RD
19F009592 20:04:59 40A AUDIBLE 59XX W JEFFERSON BLVD
19F009595 20:05:06 911 HANG UP 21XX CHERI CT
19F009594 20:08:58 48 SUSPICIOUS 12XX E CREIGHTON AVE
19F009596 20:16:01 129 64XX ASHBROOK DR
19F009597 20:16:22 129 67XX HILMER CT
19F009598 20:20:55 30 TRAFFIC STOP TAYLOR ST & STRATHMORE ST
19F009599 20:30:47 25 PD ACCIDENT W COOK RD & HANAUER RD
19F009600 20:33:33 25 PD ACCIDENT 312XX I 69 SB
19F009601 20:33:52 46 DOMESTIC 4XX E WALLACE ST
19F009602 20:36:30 30 TRAFFIC STOP ABOITE CENTER RD & DICKE RD
19F009603 20:38:11 911 HANG UP 52XX DISTRIBUTION DR
19F009605 20:43:21 25 PD ACCIDENT AIRPORT EXPRESSWAY & BLUFFTON RD
19F009604 20:43:48 46 DOMESTIC 26XX ST MARYS AVE
19F009618 20:44:10 27 RECKLESS DRI W JEFFERSON BLVD & GETZ RD
19F009607 20:48:11 25HS HIT SKIP 113XX GLENBARR DR
19F009606 20:48:22 46 DOMESTIC 11XX E CREIGHTON AVE
19F009619 20:50:37 63 CONTACT 18XX CAMPBELL CT
19F009609 20:51:24 25HS HIT SKIP 75XX S ANTHONY BLVD
19F009608 20:56:36 25 PD ACCIDENT 87XX W JEFFERSON BLVD
19F009617 20:58:47 63 CONTACT PAUL ST & ONTARIO ST
19F009610 21:02:09 25 PD ACCIDENT 49XX FAIRFIELD AVE
19F009612 21:04:18 25 PD ACCIDENT AIRPORT EXPRESSWAY & BLUFFTON RD
19F009613 21:04:45 35 PARKED VEHIC VENTURA LN & WINTER ST
19F009611 21:05:09 108 FOLLOWUP XX E MAIN ST
19F009614 21:08:15 43 DISTURBANCE 54XX MEIJER DR
19F009615 21:08:24 55 FIGHT 62XX COVINGTON RD
19F009616 21:18:20 65T SUICIDE THR 8XX HUESTIS AVE
19F009620 21:30:32 911 HANG UP OLIVER ST & E RUDISILL BLVD
19F009621 21:37:17 36 OCCUPIED VEH BLUFFTON RD & DUNKELBERG RD
19F009622 21:42:55 40A AUDIBLE 34XX CRESCENT AVE
19F009623 21:43:34 46,62 59XX FITCHBURG PL
19F009624 21:48:46 25HS HIT SKIP 50XX W JEFFERSON BLVD
19F009625 22:07:01 30 TRAFFIC STOP LIMA RD & LIMA VALLEY DR
19F009626 22:09:50 25 PD ACCIDENT AIRPORT EXPRESSWAY & FAIRFIELD AVE
19F009627 22:13:29 30 TRAFFIC STOP COLDWATER RD & E WALLEN RD
19F009628 22:20:56 33 DISABLED VEH AIRPORT EXPRESSWAY & BLUFFTON RD
19F009630 22:23:41 25 PD ACCIDENT W COOK RD & FRITZ RD
19F009629 22:23:42 25 PD ACCIDENT E STATE BLVD & N COLISEUM BLVD
19F009631 22:24:20 25 PD ACCIDENT 15XX S CLINTON ST
19F009632 22:25:05 25 PD ACCIDENT SR 3 & CARROLL RD
19F009633 22:26:52 48,36 72XX BRADBURY AVE
19F009634 22:36:52 14 WARRANT 19XX FOX POINT TRL
19F009635 22:47:58 36 OCCUPIED VEH E COLISEUM BLVD & N ANTHONY BLVD
19F009636 22:49:28 1 MEET 56XX LE STEELE BLVD
19F009639 22:53:32 48 SUSPICIOUS ILLINOIS RD & GETZ RD
19F009638 22:54:37 27 RECKLESS DRI 16XX CIRCLE DR
19F009637 22:54:56 25 PD ACCIDENT 18XX BLUFFTON RD
19F009640 22:56:58 48,36 61XX TRIER RD
19F009641 22:58:57 1 MEET 51XX TRUEMPER WAY
19F009642 22:59:51 48,36 1XX KENOSHA BLVD
19F009643 23:03:26 25HS HIT SKIP 18XX RANDALLIA DR
19F009644 23:05:47 43 DISTURBANCE 4XX W COLISEUM BLVD
19F009645 23:07:56 40A AUDIBLE 13XX WELLS ST
19F009646 23:11:50 40 ALARM 42XX LAKE AVE
19F009647 23:15:27 65T SUICIDE THR 8XX REWILL DR
19F009649 23:19:34 35 PARKED VEHIC S LAFAYETTE ST & S ANTHONY BLVD
19F009648 23:19:55 48 SUSPICIOUS 80XX FRANCHESCA WAY
19F009650 23:32:53 48,36 ST JOE RD & SHOAFF PARK RIVER DR
19F009651 23:34:21 103 UNWANTED 10XX N COLISEUM BLVD
19F009652 23:39:45 1 MEET 38XX W JEFFERSON BLVD
19F009654 23:42:02 103 UNWANTED 57XX BLUFFTON RD
19F009653 23:45:18 129 1XX W COLUMBIA ST
19F009657 23:47:51 33 DISABLED VEH 310XX I 69 NB
19F009656 23:48:27 33 DISABLED VEH MAPLECREST RD & E STATE BLVD
19F009655 23:49:52 48,36 KILLEA ST & S CALHOUN ST
19F009662 23:50:28 33,34 313XX I 69 NB